Time,TemperatureF,DewpointF,PressureIn,WindDirection,WindDirectionDegrees,WindSpeedMPH,WindSpeedGustMPH,Humidity,HourlyPrecipIn,Conditions,Clouds,dailyrainin,SoftwareType,DateUTC
2013-02-19 00:01:00,39.0,3.0,29.67,East,90,5.0,6.0,22,0.00,,,0.00,,2013-02-19 08:01:00,
2013-02-19 00:21:00,39.0,3.0,29.67,East,90,3.0,6.0,22,0.00,,,0.00,,2013-02-19 08:21:00,
2013-02-19 00:31:00,37.0,2.0,29.65,East,90,5.0,6.0,22,0.00,,,0.00,,2013-02-19 08:31:00,
2013-02-19 00:41:00,37.0,2.0,29.65,East,90,5.0,6.0,22,0.00,,,0.00,,2013-02-19 08:41:00,
2013-02-19 00:52:00,38.0,3.0,29.65,East,90,5.0,6.0,22,0.00,,,0.00,,2013-02-19 08:52:00,
2013-02-19 01:01:00,37.0,3.0,29.65,East,90,5.0,6.0,23,0.00,,,0.00,,2013-02-19 09:01:00,
2013-02-19 01:21:00,37.0,2.0,29.65,East,90,4.0,5.0,22,0.00,,,0.00,,2013-02-19 09:21:00,
2013-02-19 01:31:00,38.0,3.0,29.65,East,90,0.0,0.0,22,0.00,,,0.00,,2013-02-19 09:31:00,
2013-02-19 01:41:00,38.0,3.0,29.65,East,90,0.0,0.0,22,0.00,,,0.00,,2013-02-19 09:41:00,
2013-02-19 01:52:00,40.0,10.0,29.65,East,90,6.0,6.0,29,0.00,,,0.00,,2013-02-19 09:52:00,
2013-02-19 02:01:00,40.0,20.0,29.65,East,90,6.0,8.0,45,0.00,,,0.00,,2013-02-19 10:01:00,
2013-02-19 02:11:00,40.0,20.0,29.65,East,90,6.0,8.0,45,0.00,,,0.00,,2013-02-19 10:11:00,
2013-02-19 02:21:00,40.0,21.0,29.65,East,90,6.0,9.0,47,0.00,,,0.00,,2013-02-19 10:21:00,
2013-02-19 02:31:00,40.0,25.0,29.65,East,90,6.0,8.0,54,0.00,,,0.00,,2013-02-19 10:31:00,
2013-02-19 02:41:00,40.0,25.0,29.65,East,90,6.0,8.0,54,0.00,,,0.00,,2013-02-19 10:41:00,
2013-02-19 02:51:00,39.0,25.0,29.62,East,90,5.0,6.0,57,0.00,,,0.00,,2013-02-19 10:51:00,
2013-02-19 03:01:00,38.0,25.0,29.65,East,90,3.0,5.0,59,0.00,,,0.00,,2013-02-19 11:01:00,
2013-02-19 03:11:00,37.0,25.0,29.62,East,90,3.0,5.0,61,0.00,,,0.00,,2013-02-19 11:11:00,
2013-02-19 03:21:00,37.0,25.0,29.62,East,90,3.0,5.0,61,0.00,,,0.00,,2013-02-19 11:21:00,
2013-02-19 03:31:00,35.0,24.0,29.62,East,90,0.0,3.0,65,0.00,,,0.00,,2013-02-19 11:31:00,
2013-02-19 03:41:00,35.0,24.0,29.62,East,90,0.0,3.0,65,0.00,,,0.00,,2013-02-19 11:41:00,
2013-02-19 03:51:00,35.0,25.0,29.62,East,90,2.0,5.0,66,0.00,,,0.00,,2013-02-19 11:51:00,
2013-02-19 04:01:00,35.0,23.0,29.62,East,90,3.0,3.0,60,0.00,,,0.00,,2013-02-19 12:01:00,
2013-02-19 04:12:00,35.0,23.0,29.62,East,90,3.0,3.0,60,0.00,,,0.00,,2013-02-19 12:12:00,
2013-02-19 04:21:00,35.0,21.0,29.62,East,90,3.0,3.0,57,0.00,,,0.00,,2013-02-19 12:21:00,
2013-02-19 04:32:00,34.0,20.0,29.62,East,90,3.0,5.0,57,0.00,,,0.00,,2013-02-19 12:32:00,
2013-02-19 04:41:00,34.0,20.0,29.62,East,90,3.0,5.0,57,0.00,,,0.00,,2013-02-19 12:41:00,
2013-02-19 04:52:00,33.0,19.0,29.62,East,90,0.0,0.0,57,0.00,,,0.00,,2013-02-19 12:52:00,
2013-02-19 05:01:00,32.0,19.0,29.62,East,90,1.0,2.0,58,0.00,,,0.00,,2013-02-19 13:01:00,
2013-02-19 05:11:00,32.0,19.0,29.62,East,90,1.0,2.0,58,0.00,,,0.00,,2013-02-19 13:11:00,
2013-02-19 05:22:00,32.0,20.0,29.62,East,90,4.0,6.0,61,0.00,,,0.00,,2013-02-19 13:22:00,
2013-02-19 05:31:00,32.0,20.0,29.62,East,90,4.0,6.0,61,0.00,,,0.00,,2013-02-19 13:31:00,
2013-02-19 05:41:00,32.0,20.0,29.62,East,90,4.0,6.0,61,0.00,,,0.00,,2013-02-19 13:41:00,
2013-02-19 05:52:00,32.0,20.0,29.62,East,90,5.0,6.0,61,0.00,,,0.00,,2013-02-19 13:52:00,
2013-02-19 06:01:00,31.0,18.0,29.62,East,90,0.0,0.0,58,0.00,,,0.00,,2013-02-19 14:01:00,
2013-02-19 06:11:00,31.0,18.0,29.62,East,90,0.0,0.0,58,0.00,,,0.00,,2013-02-19 14:11:00,
2013-02-19 06:21:00,33.0,21.0,29.62,East,90,3.0,5.0,60,0.00,,,0.00,,2013-02-19 14:21:00,
2013-02-19 06:32:00,33.0,21.0,29.62,East,90,2.0,3.0,60,0.00,,,0.00,,2013-02-19 14:32:00,
2013-02-19 06:41:00,33.0,21.0,29.62,East,90,2.0,3.0,60,0.00,,,0.00,,2013-02-19 14:41:00,
2013-02-19 06:52:00,32.0,19.0,29.62,East,90,3.0,5.0,59,0.00,,,0.00,,2013-02-19 14:52:00,
2013-02-19 07:01:00,32.0,20.0,29.62,East,90,3.0,3.0,62,0.00,,,0.00,,2013-02-19 15:01:00,
2013-02-19 07:11:00,32.0,20.0,29.62,East,90,3.0,3.0,62,0.00,,,0.00,,2013-02-19 15:11:00,
2013-02-19 07:21:00,35.0,23.0,29.59,East,90,2.0,3.0,61,0.00,,,0.00,,2013-02-19 15:21:00,
2013-02-19 07:31:00,36.0,23.0,29.62,East,90,0.0,3.0,58,0.00,,,0.00,,2013-02-19 15:31:00,
2013-02-19 07:41:00,36.0,23.0,29.62,East,90,0.0,3.0,58,0.00,,,0.00,,2013-02-19 15:41:00,
2013-02-19 07:52:00,36.0,23.0,29.62,East,90,0.0,3.0,58,0.00,,,0.00,,2013-02-19 15:52:00,
2013-02-19 08:01:00,38.0,21.0,29.62,East,90,0.0,0.0,49,0.00,,,0.00,,2013-02-19 16:01:00,
2013-02-19 08:11:00,38.0,21.0,29.62,East,90,0.0,0.0,49,0.00,,,0.00,,2013-02-19 16:11:00,
2013-02-19 08:21:00,39.0,20.0,29.62,East,90,0.0,0.0,47,0.00,,,0.00,,2013-02-19 16:21:00,
2013-02-19 08:31:00,39.0,20.0,29.62,East,90,0.0,2.0,47,0.00,,,0.00,,2013-02-19 16:31:00,
2013-02-19 08:41:00,39.0,20.0,29.62,East,90,0.0,2.0,47,0.00,,,0.00,,2013-02-19 16:41:00,
2013-02-19 08:52:00,40.0,21.0,29.62,East,90,0.0,3.0,47,0.00,,,0.00,,2013-02-19 16:52:00,
2013-02-19 09:01:00,42.0,22.0,29.59,East,90,0.0,0.0,45,0.00,,,0.00,,2013-02-19 17:01:00,
2013-02-19 09:11:00,42.0,22.0,29.59,East,90,0.0,0.0,45,0.00,,,0.00,,2013-02-19 17:11:00,
2013-02-19 09:21:00,45.0,21.0,29.59,East,90,2.0,3.0,38,0.00,,,0.00,,2013-02-19 17:21:00,
2013-02-19 09:31:00,47.0,21.0,29.59,ENE,68,3.0,6.0,35,0.00,,,0.00,,2013-02-19 17:31:00,
2013-02-19 09:41:00,49.0,22.0,29.62,ENE,68,7.0,9.0,34,0.00,,,0.00,,2013-02-19 17:41:00,
2013-02-19 09:52:00,49.0,22.0,29.62,ENE,68,7.0,9.0,34,0.00,,,0.00,,2013-02-19 17:52:00,
2013-02-19 10:01:00,49.0,21.0,29.62,North,0,7.0,10.0,33,0.00,,,0.00,,2013-02-19 18:01:00,
2013-02-19 10:11:00,49.0,21.0,29.62,North,0,7.0,10.0,33,0.00,,,0.00,,2013-02-19 18:11:00,
2013-02-19 10:21:00,50.0,21.0,29.59,North,0,6.0,8.0,32,0.00,,,0.00,,2013-02-19 18:21:00,
2013-02-19 10:31:00,51.0,18.0,29.59,North,351,9.0,12.0,27,0.00,,,0.00,,2013-02-19 18:31:00,
2013-02-19 10:41:00,50.0,16.0,29.59,NNW,331,10.0,14.0,25,0.00,,,0.00,,2013-02-19 18:41:00,
2013-02-19 10:52:00,50.0,16.0,29.59,NNW,331,10.0,14.0,25,0.00,,,0.00,,2013-02-19 18:52:00,
2013-02-19 11:01:00,53.0,15.0,29.59,North,0,6.0,14.0,22,0.00,,,0.00,,2013-02-19 19:01:00,
2013-02-19 11:21:00,54.0,15.0,29.56,NNW,345,8.0,12.0,21,0.00,,,0.00,,2013-02-19 19:21:00,
2013-02-19 11:31:00,55.0,14.0,29.59,West,270,9.0,14.0,19,0.00,,,0.00,,2013-02-19 19:31:00,
2013-02-19 11:41:00,55.0,14.0,29.59,West,270,9.0,14.0,19,0.00,,,0.00,,2013-02-19 19:41:00,
2013-02-19 11:51:00,54.0,13.0,29.59,NW,313,9.0,15.0,19,0.00,,,0.00,,2013-02-19 19:51:00,
2013-02-19 12:01:00,55.0,14.0,29.59,NW,316,9.0,14.0,19,0.00,,,0.00,,2013-02-19 20:01:00,
2013-02-19 12:21:00,58.0,15.0,29.56,WNW,292,5.0,8.0,18,0.00,,,0.00,,2013-02-19 20:21:00,
2013-02-19 12:31:00,58.0,15.0,29.56,WSW,256,8.0,14.0,18,0.00,,,0.00,,2013-02-19 20:31:00,
2013-02-19 12:41:00,58.0,15.0,29.56,WSW,256,8.0,14.0,18,0.00,,,0.00,,2013-02-19 20:41:00,
2013-02-19 12:52:00,59.0,16.0,29.56,WSW,248,7.0,9.0,18,0.00,,,0.00,,2013-02-19 20:52:00,
2013-02-19 13:01:00,59.0,16.0,29.56,WSW,248,7.0,9.0,18,0.00,,,0.00,,2013-02-19 21:01:00,
2013-02-19 13:21:00,62.0,17.0,29.53,WSW,248,2.0,6.0,17,0.00,,,0.00,,2013-02-19 21:21:00,
2013-02-19 13:31:00,59.0,16.0,29.53,West,264,7.0,14.0,18,0.00,,,0.00,,2013-02-19 21:31:00,
2013-02-19 13:42:00,59.0,16.0,29.53,West,264,7.0,14.0,18,0.00,,,0.00,,2013-02-19 21:42:00,
2013-02-19 13:51:00,60.0,16.0,29.53,West,270,10.0,16.0,18,0.00,,,0.00,,2013-02-19 21:51:00,
2013-02-19 14:01:00,58.0,15.0,29.53,West,270,14.0,17.0,18,0.00,,,0.00,,2013-02-19 22:01:00,
2013-02-19 14:21:00,59.0,16.0,29.50,SW,225,9.0,15.0,18,0.00,,,0.00,,2013-02-19 22:21:00,
2013-02-19 14:31:00,58.0,15.0,29.53,SW,225,10.0,15.0,18,0.00,,,0.00,,2013-02-19 22:31:00,
2013-02-19 14:42:00,58.0,15.0,29.53,SW,225,10.0,15.0,18,0.00,,,0.00,,2013-02-19 22:42:00,
2013-02-19 14:52:00,57.0,14.0,29.53,SW,225,9.0,17.0,18,0.00,,,0.00,,2013-02-19 22:52:00,
2013-02-19 15:01:00,56.0,13.0,29.53,West,269,14.0,20.0,18,0.00,,,0.00,,2013-02-19 23:01:00,
2013-02-19 15:21:00,56.0,13.0,29.53,West,270,10.0,16.0,18,0.00,,,0.00,,2013-02-19 23:21:00,
2013-02-19 15:31:00,58.0,15.0,29.50,WSW,252,10.0,15.0,18,0.00,,,0.00,,2013-02-19 23:31:00,
2013-02-19 15:41:00,58.0,15.0,29.50,WSW,252,10.0,15.0,18,0.00,,,0.00,,2013-02-19 23:41:00,
2013-02-19 15:52:00,53.0,12.0,29.50,SW,236,14.0,20.0,19,0.00,,,0.00,,2013-02-19 23:52:00,
2013-02-19 16:01:00,52.0,11.0,29.50,WNW,290,12.0,18.0,19,0.00,,,0.00,,2013-02-20 00:01:00,
2013-02-19 16:21:00,52.0,12.0,29.50,NW,306,9.0,14.0,20,0.00,,,0.00,,2013-02-20 00:21:00,
2013-02-19 16:31:00,50.0,13.0,29.47,NW,307,15.0,21.0,22,0.00,,,0.00,,2013-02-20 00:31:00,
2013-02-19 16:41:00,50.0,13.0,29.47,NW,307,15.0,21.0,22,0.00,,,0.00,,2013-02-20 00:41:00,
2013-02-19 16:52:00,50.0,13.0,29.50,West,275,14.0,23.0,22,0.00,,,0.00,,2013-02-20 00:52:00,
2013-02-19 17:02:00,50.0,11.0,29.47,WSW,254,14.0,20.0,20,0.00,,,0.00,,2013-02-20 01:02:00,
2013-02-19 17:21:00,49.0,10.0,29.47,WSW,257,12.0,15.0,20,0.00,,,0.00,,2013-02-20 01:21:00,
2013-02-19 17:31:00,47.0,13.0,29.47,West,270,10.0,14.0,25,0.00,,,0.00,,2013-02-20 01:31:00,
2013-02-19 17:41:00,47.0,13.0,29.47,West,270,10.0,14.0,25,0.00,,,0.00,,2013-02-20 01:41:00,
2013-02-19 17:52:00,47.0,13.0,29.47,West,270,9.0,14.0,25,0.00,,,0.00,,2013-02-20 01:52:00,
2013-02-19 18:01:00,44.0,23.0,29.47,NW,319,12.0,15.0,43,0.00,,,0.00,,2013-02-20 02:01:00,
2013-02-19 18:11:00,44.0,23.0,29.47,NW,319,12.0,15.0,43,0.00,,,0.00,,2013-02-20 02:11:00,
2013-02-19 18:21:00,43.0,23.0,29.47,NW,305,10.0,15.0,44,0.00,,,0.00,,2013-02-20 02:21:00,
2013-02-19 18:31:00,44.0,21.0,29.47,NW,315,10.0,14.0,39,0.00,,,0.00,,2013-02-20 02:31:00,
2013-02-19 18:41:00,44.0,21.0,29.47,NW,315,10.0,14.0,39,0.00,,,0.00,,2013-02-20 02:41:00,
2013-02-19 18:52:00,48.0,14.0,29.47,SSW,198,10.0,17.0,25,0.00,,,0.00,,2013-02-20 02:52:00,
2013-02-19 19:01:00,47.0,15.0,29.44,South,180,2.0,5.0,27,0.00,,,0.00,,2013-02-20 03:01:00,
2013-02-19 19:21:00,43.0,21.0,29.47,NW,320,12.0,15.0,41,0.00,,,0.00,,2013-02-20 03:21:00,
2013-02-19 19:31:00,43.0,19.0,29.47,NNW,331,4.0,8.0,37,0.00,,,0.00,,2013-02-20 03:31:00,
2013-02-19 19:41:00,43.0,19.0,29.47,NNW,331,4.0,8.0,37,0.00,,,0.00,,2013-02-20 03:41:00,
2013-02-19 19:52:00,45.0,16.0,29.44,SW,223,6.0,10.0,31,0.00,,,0.00,,2013-02-20 03:52:00,
2013-02-19 20:01:00,43.0,19.0,29.47,West,279,6.0,13.0,38,0.00,,,0.00,,2013-02-20 04:01:00,
2013-02-19 20:21:00,44.0,17.0,29.47,SW,225,10.0,14.0,34,0.00,,,0.00,,2013-02-20 04:21:00,
2013-02-19 20:31:00,44.0,16.0,29.44,SW,225,10.0,13.0,32,0.00,,,0.00,,2013-02-20 04:31:00,
2013-02-19 20:41:00,44.0,16.0,29.44,SW,225,10.0,13.0,32,0.00,,,0.00,,2013-02-20 04:41:00,
2013-02-19 20:52:00,45.0,12.0,29.44,South,180,10.0,15.0,26,0.00,,,0.00,,2013-02-20 04:52:00,
2013-02-19 21:01:00,44.0,16.0,29.41,North,0,9.0,13.0,32,0.00,,,0.00,,2013-02-20 05:01:00,
2013-02-19 21:22:00,41.0,17.0,29.44,NW,326,11.0,15.0,38,0.00,,,0.00,,2013-02-20 05:22:00,
2013-02-19 21:31:00,42.0,17.0,29.44,NNE,22,5.0,7.0,36,0.00,,,0.00,,2013-02-20 05:31:00,
2013-02-19 21:42:00,42.0,17.0,29.44,NNE,22,5.0,7.0,36,0.00,,,0.00,,2013-02-20 05:42:00,
2013-02-19 21:52:00,42.0,16.0,29.44,NW,323,8.0,10.0,34,0.00,,,0.00,,2013-02-20 05:52:00,
2013-02-19 22:01:00,42.0,16.0,29.41,NW,315,10.0,13.0,34,0.00,,,0.00,,2013-02-20 06:01:00,
2013-02-19 22:11:00,41.0,16.0,29.44,NW,315,9.0,13.0,36,0.00,,,0.00,,2013-02-20 06:11:00,
2013-02-19 22:21:00,41.0,16.0,29.44,NW,315,9.0,13.0,36,0.00,,,0.00,,2013-02-20 06:21:00,
2013-02-19 22:31:00,41.0,15.0,29.41,WNW,291,9.0,14.0,34,0.00,,,0.00,,2013-02-20 06:31:00,
2013-02-19 22:41:00,41.0,15.0,29.41,WNW,291,9.0,14.0,34,0.00,,,0.00,,2013-02-20 06:41:00,
2013-02-19 22:51:00,40.0,16.0,29.41,NW,315,10.0,14.0,37,0.00,,,0.00,,2013-02-20 06:51:00,
2013-02-19 23:01:00,39.0,20.0,29.41,WNW,286,12.0,16.0,47,0.00,,,0.00,,2013-02-20 07:01:00,
2013-02-19 23:11:00,39.0,20.0,29.41,WNW,286,12.0,16.0,47,0.00,,,0.00,,2013-02-20 07:11:00,
2013-02-19 23:21:00,38.0,22.0,29.41,WNW,289,12.0,17.0,53,0.00,,,0.00,,2013-02-20 07:21:00,
2013-02-19 23:31:00,38.0,20.0,29.41,West,280,10.0,12.0,48,0.00,,,0.00,,2013-02-20 07:31:00,
2013-02-19 23:41:00,38.0,20.0,29.41,West,280,10.0,12.0,48,0.00,,,0.00,,2013-02-20 07:41:00,
2013-02-19 23:52:00,38.0,20.0,29.41,West,270,9.0,15.0,48,0.00,,,0.00,,2013-02-20 07:52:00,